{"data":{"norad_id":58296,"intl_designator":"2023-174AS","name":"PELICAN-1","alt_names":[],"object_type":"PAYLOAD","status":"ACTIVE","operator":null,"country":"US","launch_date":"2023-11-11","launch_site_code":"AFWTR","launch_vehicle":null,"mission":null,"orbit_class":"UNKNOWN","rcs_meters":null,"size_class":null,"mass_kg":null,"dimensions":null,"purposes":["earth_obs"],"wikipedia_slug":null,"has_3d_model":false,"image_url":null,"decayed_at":null,"tle_current":{"epoch":"2026-09-19T01:16:44.097024Z","epoch_age_seconds":139396,"freshness":"FRESH","line1":"1 58296U 23174AS  26262.05328816  .00004362  00000+0  41416-4 0  9992","line2":"2 58296  97.3986   7.9905 0001699  53.1304 307.0113 15.67498050160901","mean_motion":15.6749805,"eccentricity":0.0001699,"inclination_deg":97.3986,"raan_deg":7.9905,"arg_perigee_deg":53.1304,"mean_anomaly_deg":307.0113,"bstar":4.1416e-5,"rev_number":16090,"period_min":91.866142991374,"perigee_km":364.91810716643,"apogee_km":367.20978664818,"semimajor_km":6744.2009469073,"source":"CELESTRAK","updated_at":"2026-09-20T09:00:34.710292Z"}}}